Weather History for KELZ - September, 2013

Change the Weather History Date:

Thursday, September 12, 2013

  Actual Average (KBFD) Record (KBFD)
Temperature  
Mean Temperature 66 °F 58 °F  
Max Temperature 75 °F 70 °F 82 °F (1961)
Min Temperature 57 °F 47 °F 31 °F (1958)
Degree Days  
Heating Degree Days 0 4  
Month to date heating degree days 30  
Since 1 July heating degree days 183  
Cooling Degree Days 1 1  
Month to date cooling degree days 12  
Year to date cooling degree days 189  
Growing Degree Days 16 (Base 50)    
Moisture  
Dew Point 63 °F    
Average Humidity 87    
Maximum Humidity 100    
Minimum Humidity 73    
Precipitation  
Precipitation 0.33 in 0.13 in 1.38 in (2006)
Month to date precipitation 1.55  
Year to date precipitation 31.50  
Sea Level Pressure  
Sea Level Pressure 29.89 in    
Wind  
Wind Speed 8 mph (West)    
Max Wind Speed 15 mph    
Max Gust Speed 23 mph    
Visibility 7 miles    
Events Rain , Thunderstorm    
T = Trace of Precipitation, MM = Missing Value Source: NWS Daily Summary

Daily Weather History Graph

Daily Weather History Graph

Search for Another Location

Airport or City:

Trip Planner

Search our weather history database for the weather conditions in past years. The results will help you decide how hot, cold, wet, or windy it might be!

Date:

Astronomy

Sep. 12, 2013 Rise Set
Actual Time 6:49 AM EDT 7:26 PM EDT
Civil Twilight 6:20 AM EDT 7:54 PM EDT
Nautical Twilight 5:47 AM EDT 8:27 PM EDT
Astronomical Twilight 5:13 AM EDT 9:02 PM EDT
Moon 2:21 PM EDT (9/12) No Moon Set
Length of Visible Light 13h 33m
Length of Day
12h 37m
Waxing Crescent, 50% of the Moon is Illuminated
Sep 12
Waxing Crescent
Sep 12
First Quarter
Sep 19
Full
Sep 26
Last Quarter
Oct 4
New

Hourly Weather History & Observations

Time (EDT) Temp. Dew Point Humidity Pressure Visibility Wind Dir Wind Speed Gust Speed Precip Events Conditions
12:56 AM 69.1 °F 64.0 °F 84% 29.98 in 10.0 mi SW 11.5 mph - N/A   Clear
1:56 AM 66.9 °F 64.0 °F 90% 29.99 in 10.0 mi Calm Calm - N/A   Clear
2:56 AM 66.0 °F 63.0 °F 90% 29.97 in 10.0 mi West 6.9 mph - N/A   Clear
3:56 AM 66.9 °F 64.0 °F 90% 29.94 in 10.0 mi SSW 5.8 mph - N/A   Clear
4:56 AM 66.9 °F 64.0 °F 90% 29.94 in 10.0 mi SW 4.6 mph - N/A   Clear
5:42 AM 66.2 °F 64.4 °F 94% 29.97 in 5.0 mi SSW 8.1 mph - N/A   Scattered Clouds
5:51 AM 66.2 °F 64.4 °F 94% 29.96 in 3.0 mi SSW 9.2 mph 17.3 mph N/A   Mostly Cloudy
5:56 AM 66.9 °F 64.9 °F 93% 29.93 in 2.5 mi SSW 11.5 mph 17.3 mph N/A   Mostly Cloudy
6:10 AM 66.2 °F 64.4 °F 94% 29.96 in 1.5 mi SW 10.4 mph - N/A   Overcast
6:47 AM 66.2 °F 66.2 °F 100% 29.97 in 2.5 mi SSW 8.1 mph - N/A   Overcast
6:56 AM 68.0 °F 66.0 °F 93% 29.94 in 3.0 mi SW 6.9 mph - N/A   Overcast
7:08 AM 68.0 °F 66.2 °F 94% 29.97 in 2.5 mi SSW 5.8 mph - N/A   Overcast
7:37 AM 68.0 °F 66.2 °F 94% 29.97 in 1.8 mi SW 8.1 mph - N/A   Overcast
7:45 AM 68.0 °F 66.2 °F 94% 29.97 in 2.0 mi SW 6.9 mph - N/A   Overcast
7:56 AM 69.1 °F 66.0 °F 90% 29.94 in 2.5 mi SW 6.9 mph - N/A   Overcast
8:03 AM 69.8 °F 66.2 °F 88% 29.96 in 3.0 mi SSW 9.2 mph - N/A   Overcast
8:11 AM 69.8 °F 66.2 °F 88% 29.97 in 4.0 mi SW 5.8 mph - N/A   Overcast
8:56 AM 70.0 °F 66.9 °F 90% 29.92 in 4.0 mi SW 5.8 mph - N/A   Overcast
9:11 AM 71.6 °F 66.2 °F 83% 29.95 in 5.0 mi WSW 8.1 mph - N/A   Haze
9:25 AM 71.6 °F 66.2 °F 83% 29.95 in 6.0 mi SW 5.8 mph - N/A   Haze
9:33 AM 71.6 °F 66.2 °F 83% 29.95 in 6.0 mi WSW 8.1 mph - N/A   Haze
9:40 AM 71.6 °F 66.2 °F 83% 29.94 in 7.0 mi SW 8.1 mph - N/A   Mostly Cloudy
9:56 AM 72.0 °F 66.0 °F 81% 29.91 in 7.0 mi WSW 6.9 mph - N/A   Overcast
10:12 AM 71.6 °F 66.2 °F 83% 29.94 in 8.0 mi WSW 8.1 mph 18.4 mph N/A   Mostly Cloudy
10:42 AM 73.4 °F 66.2 °F 78% 29.93 in 8.0 mi WSW 10.4 mph - N/A   Mostly Cloudy
10:56 AM 73.0 °F 66.0 °F 79% 29.89 in 9.0 mi WSW 11.5 mph 19.6 mph N/A   Scattered Clouds
11:21 AM 73.4 °F 66.2 °F 78% 29.92 in 9.0 mi WSW 9.2 mph - N/A   Mostly Cloudy
11:35 AM 73.4 °F 64.4 °F 73% 29.92 in 10.0 mi WSW 9.2 mph - N/A Thunderstorm Mostly Cloudy
11:56 AM 73.0 °F 64.9 °F 76% 29.88 in 10.0 mi WNW 13.8 mph 20.7 mph N/A   Overcast
12:20 PM 69.8 °F 64.4 °F 83% 29.92 in 10.0 mi WNW 15.0 mph - 0.00 in Rain Light Rain
12:56 PM 69.1 °F 66.0 °F 90% 29.87 in 7.0 mi WNW 8.1 mph - 0.07 in   Mostly Cloudy
1:18 PM 69.8 °F 64.4 °F 83% 29.90 in 9.0 mi Variable 5.8 mph - N/A Thunderstorm Mostly Cloudy
1:37 PM 68.0 °F 64.4 °F 88% 29.88 in 7.0 mi West 4.6 mph - 0.01 in Rain Light Rain
1:56 PM 68.0 °F 64.0 °F 87% 29.86 in 7.0 mi West 5.8 mph - 0.02 in Rain Light Rain
2:54 PM 68.0 °F 64.4 °F 88% 29.88 in 4.0 mi Calm Calm - 0.03 in Rain Light Rain
2:56 PM 68.0 °F 64.9 °F 90% 29.85 in 4.0 mi Calm Calm - 0.04 in Rain Light Rain
3:26 PM 68.0 °F 64.4 °F 88% 29.85 in 4.0 mi West 4.6 mph - 0.03 in Rain Rain
3:56 PM 66.9 °F 64.0 °F 90% 29.81 in 10.0 mi NNW 11.5 mph - 0.05 in   Overcast
4:12 PM 66.2 °F 62.6 °F 88% 29.83 in 8.0 mi NW 10.4 mph - 0.00 in Rain Light Rain
4:25 PM 66.2 °F 62.6 °F 88% 29.83 in 6.0 mi WNW 12.7 mph 19.6 mph 0.02 in Rain Rain
4:56 PM 66.0 °F 63.0 °F 90% 29.80 in 10.0 mi WNW 6.9 mph - 0.02 in   Mostly Cloudy
5:32 PM 66.2 °F 62.6 °F 88% 29.82 in 10.0 mi NW 6.9 mph - N/A   Mostly Cloudy
5:56 PM 66.0 °F 62.1 °F 87% 29.79 in 10.0 mi NW 6.9 mph - N/A   Mostly Cloudy
6:04 PM 66.2 °F 62.6 °F 88% 29.81 in 10.0 mi NW 6.9 mph - N/A   Scattered Clouds
6:56 PM 64.9 °F 61.0 °F 87% 29.80 in 10.0 mi Calm Calm - N/A   Mostly Cloudy
7:13 PM 64.4 °F 62.6 °F 94% 29.82 in 10.0 mi Calm Calm - N/A   Scattered Clouds
7:21 PM 64.4 °F 62.6 °F 94% 29.82 in 10.0 mi Calm Calm - N/A   Mostly Cloudy
7:34 PM 64.4 °F 60.8 °F 88% 29.82 in 1.8 mi NNW 4.6 mph - 0.10 in Rain Heavy Rain
7:37 PM 64.4 °F 60.8 °F 88% 29.83 in 2.0 mi NW 9.2 mph - 0.12 in Rain Heavy Rain
7:42 PM 62.6 °F 60.8 °F 94% 29.83 in 3.0 mi NW 13.8 mph 18.4 mph 0.13 in Rain Rain
7:54 PM 62.6 °F 57.2 °F 82% 29.83 in 10.0 mi NW 12.7 mph 23.0 mph 0.13 in Rain Light Rain
7:56 PM 62.1 °F 57.9 °F 86% 29.81 in 10.0 mi NW 12.7 mph 23.0 mph 0.13 in Rain Light Rain
8:56 PM 60.1 °F 55.9 °F 86% 29.82 in 10.0 mi NW 10.4 mph - 0.00 in   Overcast
9:07 PM 59.0 °F 55.4 °F 88% 29.85 in 10.0 mi NW 10.4 mph - N/A   Mostly Cloudy
9:15 PM 60.8 °F 55.4 °F 82% 29.84 in 10.0 mi NW 8.1 mph - N/A   Mostly Cloudy
9:25 PM 60.8 °F 55.4 °F 82% 29.85 in 10.0 mi NW 6.9 mph - N/A   Mostly Cloudy
9:56 PM 59.0 °F 55.9 °F 90% 29.82 in 10.0 mi NW 9.2 mph - N/A   Mostly Cloudy
10:56 PM 59.0 °F 55.0 °F 87% 29.81 in 10.0 mi NW 9.2 mph - N/A   Scattered Clouds
11:56 PM 57.0 °F 53.1 °F 87% 29.81 in 10.0 mi NW 6.9 mph - N/A   Clear